Regional Weather Roundup
Issued by NWS Green Bay, WI

Home | Current Version | Previous Version | Text Only | Print | Product List | Glossary On
Versions: 1 2 3 4 5 6 7 8 9 10 11 12 13 14 15 16 17 18 19 20 21 22 23 24 25 26 27 28 29 30 31 32 33 34 35 36 37 38 39 40 41 42 43 44 45 46 47 48 49 50
000
ASUS43 KGRB 271410
RWRGRB

NORTH-CENTRAL AND NORTHEAST WISCONSIN REGIONAL WEATHER ROUNDUP
NATIONAL WEATHER SERVICE GREEN BAY WI
800 AM CST THU NOV 27 2014

WIZ005-009-010>012-018-019-271500-
NORTH CENTRAL WISCONSIN

CITY           SKY/WX    TMP DP  RH WIND       PRES   REMARKS
IRONWOOD       CLOUDY     9   7  92 NW9       30.31S WCI  -5
MANITOWISH WTR PTCLDY    -3  -6  88 NW6       30.30R WCI -16
ARBOR VITAE    FLURRIES   4   0  83 NW6       30.30R WCI  -7
EAGLE RIVER    PTCLDY     0  -4  82 CALM      30.27S FOG
LAND O LAKES   PTCLDY     4   1  86 NW5       30.28R WCI  -5
RHINELANDER    CLEAR      1  -2  87 W6        30.29R WCI -10
PHILLIPS       CLEAR     -3  -6  86 CALM      30.33S FOG
ANTIGO         LGT SNOW   5   2  88 N6        30.29R WCI  -6
TOMAHAWK       MOCLDY     2  -1  85 CALM      30.33R
MERRILL        CLEAR      6   1  81 NW6       30.33R WCI  -4
$$

WIZ013-073-271500-
NORTHEAST WISCONSIN

CITY           SKY/WX    TMP DP  RH WIND       PRES   REMARKS
IRON MOUNTAIN  CLEAR      5   0  79 NW8       30.29R WCI  -8
MARINETTE      CLOUDY    12   5  73 NW12G17   30.30R WCI  -2
OCONTO         MOCLDY    13   6  73 N6        30.32R WCI   4
$$

WIZ017-030-035>037-045-271500-
CENTRAL WISCONSIN

CITY           SKY/WX    TMP DP  RH WIND       PRES   REMARKS
MEDFORD        CLEAR      3  -1  81 N12       30.32S WCI -13
WAUSAU         CLEAR      8   3  80 NW9       30.32R WCI  -5
MOSINEE        MOCLDY    10   7  85 N8        30.33R WCI  -1
MARSHFIELD     MOCLDY     7   2  80 NW9       30.34R WCI  -7
WISC RAPIDS    LGT SNOW  12   5  73 NW14      30.36R WCI  -3
STEVENS POINT  LGT SNOW  11   7  83 NW8       30.33R WCI  -1
WAUPACA        CLOUDY    18  11  75 NW9       30.33R WCI   6
SHAWANO        CLOUDY    16   9  72 N6        30.33R WCI   7
CLINTONVILLE   CLOUDY    18  10  73 N7        30.32R WCI   8
$$

WIZ038-039-048-051-271500-
FOX VALLEY

CITY           SKY/WX    TMP DP  RH WIND       PRES   REMARKS
NWS GREEN BAY  CLOUDY    16   8  71 N13       30.31R WCI   2
APPLETON       LGT SNOW  18  12  79 N12       30.30R WCI   5
OSHKOSH        CLOUDY    18  13  80 MISG      30.30R
FOND DU LAC    CLOUDY    19  13  77 NW16      30.30R WCI   4
$$

WIZ022-050-052-271500-
EAST CENTRAL WISCONSIN

CITY           SKY/WX    TMP DP  RH WIND       PRES   REMARKS
STURGEON BAY   CLOUDY    18   7  62 N17G23    30.29R WCI   2
MANITOWOC      CLOUDY    19  14  81 N13       30.29R WCI   6
SHEBOYGAN      CLOUDY    21  15  78 N10       30.28R WCI  10
$$

LMZ563-521-522-541>543-271500-
LAKESHORE

STATION/POSITION TIME  TEMP    WIND        PRES    VSBY  WAVE
                       AIR SEA DIR/SP/G                  HT/PER
                 (UTC) (F)     (DEG/KT/KT) (MB)    (MI)  (FT/S)
SHEBOYGAN LKSHOR 1400   21 35  330/ 16/ 20 1026.8R
KEWAUNEE LKSHORE 1400   18     340/ 14/ 19 1024.5R
NORTHPORT PIER   1400   19     330/ 22/ 25 1025.1R
N MID LAKE BUOY  1400   21 42  320/ 21/ 27 1024.8R         5/ 5
STURGEON BAY CG  1300   18     340/  9     1025.6      6   1
CHAMBERS ISLAND  1400   17     320/ 17/ 22 1026.1R
MENOMINEE LKSHOR 1400   16     310/ 16/ 21 1026.6R
$$


USA.gov is the U.S. government's official web portal to all federal, state and local government web resources and services.